Time,TemperatureF,DewpointF,PressureIn,WindDirection,WindDirectionDegrees,WindSpeedMPH,WindSpeedGustMPH,Humidity,HourlyPrecipIn,Conditions,Clouds,dailyrainin,SolarRadiationWatts/m^2,SoftwareType,DateUTC
2013-12-03 00:02:00,44.0,31.0,-100.00,NNE,15,2.0,5.0,60,0.00,,,0.00,20.000000,,2013-12-03 00:02:00,
2013-12-03 00:11:00,40.0,32.0,-100.00,NE,38,2.0,6.0,72,0.00,,,0.00,0.000000,,2013-12-03 00:11:00,
2013-12-03 00:42:00,40.0,32.0,-100.00,NE,38,2.0,6.0,72,0.00,,,0.00,0.000000,,2013-12-03 00:42:00,
2013-12-03 00:52:00,40.0,32.0,-100.00,NE,38,2.0,6.0,72,0.00,,,0.00,0.000000,,2013-12-03 00:52:00,
2013-12-03 01:01:00,40.0,32.0,-100.00,NE,38,2.0,6.0,72,0.00,,,0.00,0.000000,,2013-12-03 01:01:00,
2013-12-03 01:11:00,41.0,33.0,-100.00,North,355,2.0,4.0,73,0.00,,,0.00,0.000000,,2013-12-03 01:11:00,
2013-12-03 01:42:00,41.0,33.0,-100.00,North,355,2.0,4.0,73,0.00,,,0.00,0.000000,,2013-12-03 01:42:00,
2013-12-03 01:52:00,41.0,33.0,-100.00,North,355,2.0,4.0,73,0.00,,,0.00,0.000000,,2013-12-03 01:52:00,
2013-12-03 02:02:00,41.0,33.0,-100.00,North,355,2.0,4.0,73,0.00,,,0.00,0.000000,,2013-12-03 02:02:00,
2013-12-03 02:11:00,44.0,34.0,-100.00,ENE,75,2.0,5.0,67,0.00,,,0.00,0.000000,,2013-12-03 02:11:00,
2013-12-03 02:42:00,44.0,34.0,-100.00,ENE,75,2.0,5.0,67,0.00,,,0.00,0.000000,,2013-12-03 02:42:00,
2013-12-03 02:52:00,44.0,34.0,-100.00,ENE,75,2.0,5.0,67,0.00,,,0.00,0.000000,,2013-12-03 02:52:00,
2013-12-03 03:02:00,44.0,34.0,-100.00,ENE,75,2.0,5.0,67,0.00,,,0.00,0.000000,,2013-12-03 03:02:00,
2013-12-03 03:11:00,45.0,31.0,-100.00,NE,56,4.0,9.0,58,0.00,,,0.00,0.000000,,2013-12-03 03:11:00,
2013-12-03 03:43:00,45.0,31.0,-100.00,NE,56,4.0,9.0,58,0.00,,,0.00,0.000000,,2013-12-03 03:43:00,
2013-12-03 03:54:00,45.0,31.0,-100.00,NE,56,4.0,9.0,58,0.00,,,0.00,0.000000,,2013-12-03 03:54:00,
2013-12-03 04:03:00,45.0,31.0,-100.00,NE,56,4.0,9.0,58,0.00,,,0.00,0.000000,,2013-12-03 04:03:00,
2013-12-03 04:11:00,42.0,33.0,-100.00,East,101,3.0,7.0,70,0.00,,,0.00,0.000000,,2013-12-03 04:11:00,
2013-12-03 04:43:00,42.0,33.0,-100.00,East,101,3.0,7.0,70,0.00,,,0.00,0.000000,,2013-12-03 04:43:00,
2013-12-03 04:52:00,42.0,33.0,-100.00,East,101,3.0,7.0,70,0.00,,,0.00,0.000000,,2013-12-03 04:52:00,
2013-12-03 05:02:00,42.0,33.0,-100.00,East,101,3.0,7.0,70,0.00,,,0.00,0.000000,,2013-12-03 05:02:00,
2013-12-03 05:11:00,35.0,30.0,-100.00,ENE,73,1.0,4.0,81,0.00,,,0.00,0.000000,,2013-12-03 05:11:00,
2013-12-03 05:43:00,35.0,30.0,-100.00,ENE,73,1.0,4.0,81,0.00,,,0.00,0.000000,,2013-12-03 05:43:00,
2013-12-03 05:53:00,35.0,30.0,-100.00,ENE,73,1.0,4.0,81,0.00,,,0.00,0.000000,,2013-12-03 05:53:00,
2013-12-03 06:02:00,35.0,30.0,-100.00,ENE,73,1.0,4.0,81,0.00,,,0.00,0.000000,,2013-12-03 06:02:00,
2013-12-03 06:11:00,35.0,30.0,-100.00,NE,55,2.0,6.0,82,0.00,,,-99.99,0.000000,,2013-12-03 06:11:00,
2013-12-03 06:42:00,35.0,30.0,-100.00,NE,55,2.0,6.0,82,0.00,,,-99.99,0.000000,,2013-12-03 06:42:00,
2013-12-03 06:53:00,35.0,30.0,-100.00,NE,55,2.0,6.0,82,0.00,,,-99.99,0.000000,,2013-12-03 06:53:00,
2013-12-03 07:02:00,35.0,30.0,-100.00,NE,55,2.0,6.0,82,0.00,,,-99.99,0.000000,,2013-12-03 07:02:00,
2013-12-03 07:11:00,31.0,27.0,-100.00,SSW,197,2.0,6.0,86,0.00,,,0.00,0.000000,,2013-12-03 07:11:00,
2013-12-03 07:42:00,31.0,27.0,-100.00,SSW,197,2.0,6.0,86,0.00,,,0.00,0.000000,,2013-12-03 07:42:00,
2013-12-03 07:52:00,31.0,27.0,-100.00,SSW,197,2.0,6.0,86,0.00,,,0.00,0.000000,,2013-12-03 07:52:00,
2013-12-03 08:02:00,31.0,27.0,-100.00,SSW,197,2.0,6.0,86,0.00,,,0.00,0.000000,,2013-12-03 08:02:00,
2013-12-03 08:11:00,36.0,30.0,-100.00,NNE,25,12.0,17.0,80,0.00,,,0.00,0.000000,,2013-12-03 08:11:00,
2013-12-03 08:42:00,36.0,30.0,-100.00,NNE,25,12.0,17.0,80,0.00,,,0.00,0.000000,,2013-12-03 08:42:00,
2013-12-03 08:53:00,36.0,30.0,-100.00,NNE,25,12.0,17.0,80,0.00,,,0.00,0.000000,,2013-12-03 08:53:00,
2013-12-03 09:01:00,36.0,30.0,-100.00,NNE,25,12.0,17.0,80,0.00,,,0.00,0.000000,,2013-12-03 09:01:00,
2013-12-03 09:11:00,35.0,29.0,-100.00,NNE,31,11.0,19.0,80,0.00,,,-99.99,0.000000,,2013-12-03 09:11:00,
2013-12-03 09:43:00,35.0,29.0,-100.00,NNE,31,11.0,19.0,80,0.00,,,-99.99,0.000000,,2013-12-03 09:43:00,
2013-12-03 09:54:00,35.0,29.0,-100.00,NNE,31,11.0,19.0,80,0.00,,,-99.99,0.000000,,2013-12-03 09:54:00,
2013-12-03 10:03:00,35.0,29.0,-100.00,NNE,31,11.0,19.0,80,0.00,,,-99.99,0.000000,,2013-12-03 10:03:00,
2013-12-03 10:11:00,33.0,29.0,-100.00,North,7,7.0,15.0,84,0.00,,,0.00,0.000000,,2013-12-03 10:11:00,
2013-12-03 10:42:00,33.0,29.0,-100.00,North,7,7.0,15.0,84,0.00,,,0.00,0.000000,,2013-12-03 10:42:00,
2013-12-03 10:53:00,33.0,29.0,-100.00,North,7,7.0,15.0,84,0.00,,,0.00,0.000000,,2013-12-03 10:53:00,
2013-12-03 11:03:00,33.0,29.0,-100.00,North,7,7.0,15.0,84,0.00,,,0.00,0.000000,,2013-12-03 11:03:00,
2013-12-03 11:11:00,30.0,28.0,-100.00,NNE,12,8.0,14.0,92,0.00,,,0.00,0.000000,,2013-12-03 11:11:00,
2013-12-03 11:42:00,30.0,28.0,-100.00,NNE,12,8.0,14.0,92,0.00,,,0.00,0.000000,,2013-12-03 11:42:00,
2013-12-03 11:52:00,30.0,28.0,-100.00,NNE,12,8.0,14.0,92,0.00,,,0.00,0.000000,,2013-12-03 11:52:00,
2013-12-03 12:02:00,30.0,28.0,-100.00,NNE,12,8.0,14.0,92,0.00,,,0.00,0.000000,,2013-12-03 12:02:00,
2013-12-03 12:11:00,31.0,31.0,-100.00,NNE,25,8.0,15.0,100,0.00,,,-99.99,0.000000,,2013-12-03 12:11:00,
2013-12-03 12:42:00,31.0,31.0,-100.00,NNE,25,8.0,15.0,100,0.00,,,-99.99,0.000000,,2013-12-03 12:42:00,
2013-12-03 12:52:00,31.0,31.0,-100.00,NNE,25,8.0,15.0,100,0.00,,,-99.99,0.000000,,2013-12-03 12:52:00,
2013-12-03 13:02:00,31.0,31.0,-100.00,NNE,25,8.0,15.0,100,0.00,,,-99.99,0.000000,,2013-12-03 13:02:00,
2013-12-03 13:11:00,32.0,32.0,-100.00,NNE,20,7.0,13.0,100,0.00,,,0.00,0.000000,,2013-12-03 13:11:00,
2013-12-03 13:42:00,32.0,32.0,-100.00,NNE,20,7.0,13.0,100,0.00,,,0.00,0.000000,,2013-12-03 13:42:00,
2013-12-03 13:52:00,32.0,32.0,-100.00,NNE,20,7.0,13.0,100,0.00,,,0.00,0.000000,,2013-12-03 13:52:00,
2013-12-03 14:02:00,32.0,32.0,-100.00,NNE,20,7.0,13.0,100,0.00,,,0.00,0.000000,,2013-12-03 14:02:00,
2013-12-03 14:11:00,33.0,32.0,-100.00,NNE,14,8.0,13.0,95,0.00,,,0.00,4.000000,,2013-12-03 14:11:00,
2013-12-03 14:42:00,33.0,32.0,-100.00,NNE,14,8.0,13.0,95,0.00,,,0.00,4.000000,,2013-12-03 14:42:00,
2013-12-03 14:52:00,33.0,32.0,-100.00,NNE,14,8.0,13.0,95,0.00,,,0.00,4.000000,,2013-12-03 14:52:00,
2013-12-03 15:02:00,33.0,32.0,-100.00,NNE,14,8.0,13.0,95,0.00,,,0.00,4.000000,,2013-12-03 15:02:00,
2013-12-03 15:11:00,33.0,31.0,-100.00,NNE,31,7.0,12.0,94,0.00,,,0.00,31.000000,,2013-12-03 15:11:00,
2013-12-03 15:44:00,33.0,31.0,-100.00,NNE,31,7.0,12.0,94,0.00,,,0.00,31.000000,,2013-12-03 15:44:00,
2013-12-03 15:54:00,33.0,31.0,-100.00,NNE,31,7.0,12.0,94,0.00,,,0.00,31.000000,,2013-12-03 15:54:00,
2013-12-03 16:04:00,33.0,31.0,-100.00,NNE,31,7.0,12.0,94,0.00,,,0.00,31.000000,,2013-12-03 16:04:00,
2013-12-03 16:11:00,35.0,32.0,-100.00,North,0,7.0,12.0,89,0.00,,,0.00,87.000000,,2013-12-03 16:11:00,
2013-12-03 16:43:00,35.0,32.0,-100.00,North,0,7.0,12.0,89,0.00,,,0.00,87.000000,,2013-12-03 16:43:00,
2013-12-03 16:52:00,35.0,32.0,-100.00,North,0,7.0,12.0,89,0.00,,,0.00,87.000000,,2013-12-03 16:52:00,
2013-12-03 17:02:00,35.0,32.0,-100.00,North,0,7.0,12.0,89,0.00,,,0.00,87.000000,,2013-12-03 17:02:00,
2013-12-03 17:11:00,37.0,33.0,-100.00,North,7,7.0,12.0,85,0.00,,,0.00,136.000000,,2013-12-03 17:11:00,
2013-12-03 17:42:00,37.0,33.0,-100.00,North,7,7.0,12.0,85,0.00,,,0.00,136.000000,,2013-12-03 17:42:00,
2013-12-03 17:53:00,37.0,33.0,-100.00,North,7,7.0,12.0,85,0.00,,,0.00,136.000000,,2013-12-03 17:53:00,
2013-12-03 18:02:00,37.0,33.0,-100.00,North,7,7.0,12.0,85,0.00,,,0.00,136.000000,,2013-12-03 18:02:00,
2013-12-03 18:11:00,37.0,32.0,-100.00,North,7,8.0,15.0,83,0.00,,,0.00,146.000000,,2013-12-03 18:11:00,
2013-12-03 18:42:00,37.0,32.0,-100.00,North,7,8.0,15.0,83,0.00,,,0.00,146.000000,,2013-12-03 18:42:00,
2013-12-03 18:53:00,37.0,32.0,-100.00,North,7,8.0,15.0,83,0.00,,,0.00,146.000000,,2013-12-03 18:53:00,
2013-12-03 19:02:00,37.0,32.0,-100.00,North,7,8.0,15.0,83,0.00,,,0.00,146.000000,,2013-12-03 19:02:00,
2013-12-03 19:11:00,37.0,33.0,-100.00,North,9,9.0,15.0,84,0.00,,,0.00,124.000000,,2013-12-03 19:11:00,
2013-12-03 19:42:00,37.0,33.0,-100.00,North,9,9.0,15.0,84,0.00,,,0.00,124.000000,,2013-12-03 19:42:00,
2013-12-03 19:52:00,37.0,33.0,-100.00,North,9,9.0,15.0,84,0.00,,,0.00,124.000000,,2013-12-03 19:52:00,
2013-12-03 20:02:00,37.0,33.0,-100.00,North,9,9.0,15.0,84,0.00,,,0.00,124.000000,,2013-12-03 20:02:00,
2013-12-03 20:11:00,37.0,33.0,-100.00,North,9,8.0,15.0,85,0.00,,,0.00,75.000000,,2013-12-03 20:11:00,
2013-12-03 20:42:00,37.0,33.0,-100.00,North,9,8.0,15.0,85,0.00,,,0.00,75.000000,,2013-12-03 20:42:00,
2013-12-03 20:53:00,37.0,33.0,-100.00,North,9,8.0,15.0,85,0.00,,,0.00,75.000000,,2013-12-03 20:53:00,
2013-12-03 21:02:00,37.0,33.0,-100.00,North,9,8.0,15.0,85,0.00,,,0.00,75.000000,,2013-12-03 21:02:00,
2013-12-03 21:11:00,36.0,32.0,-100.00,North,3,8.0,14.0,86,0.00,,,0.00,50.000000,,2013-12-03 21:11:00,
2013-12-03 21:44:00,36.0,32.0,-100.00,North,3,8.0,14.0,86,0.00,,,0.00,50.000000,,2013-12-03 21:44:00,
2013-12-03 21:54:00,36.0,32.0,-100.00,North,3,8.0,14.0,86,0.00,,,0.00,50.000000,,2013-12-03 21:54:00,
2013-12-03 22:03:00,36.0,32.0,-100.00,North,3,8.0,14.0,86,0.00,,,0.00,50.000000,,2013-12-03 22:03:00,
2013-12-03 22:11:00,35.0,32.0,-100.00,North,353,7.0,14.0,87,0.00,,,-99.99,30.000000,,2013-12-03 22:11:00,
2013-12-03 22:43:00,35.0,32.0,-100.00,North,353,7.0,14.0,87,0.00,,,-99.99,30.000000,,2013-12-03 22:43:00,
2013-12-03 22:53:00,35.0,32.0,-100.00,North,353,7.0,14.0,87,0.00,,,-99.99,30.000000,,2013-12-03 22:53:00,
2013-12-03 23:03:00,35.0,32.0,-100.00,North,353,7.0,14.0,87,0.00,,,-99.99,30.000000,,2013-12-03 23:03:00,
2013-12-03 23:11:00,33.0,31.0,-100.00,North,354,7.0,17.0,91,0.00,,,0.00,5.000000,,2013-12-03 23:11:00,
2013-12-03 23:42:00,33.0,31.0,-100.00,North,354,7.0,17.0,91,0.00,,,0.00,5.000000,,2013-12-03 23:42:00,
2013-12-03 23:52:00,33.0,31.0,-100.00,North,354,7.0,17.0,91,0.00,,,0.00,5.000000,,2013-12-03 23:52:00,